Retour au catalogue

STARLINK-34680

ActifCommunicationsVLEO
NORAD 65356·PAYLOAD·🇺🇸 United States

Lancé Aug 28, 2025 depuis Cape Canaveral Space Force Station

Loading…

Prochains Passages (prochaines 24 heures)

TLE

FraisSource: CelesTrak SupGP

Époque: Sep 15, 2026, 02:40 UTC

1 65356C 25190F   26258.11159722  .00054531  00000+0  16114-2 0  2583
2 65356  53.1592   6.8863 0001137  90.5789  30.2750 15.34358758    10

Suivez STARLINK-34680 en temps réel avec AllMySat

Download on the App Store